Regional Weather Roundup
Issued by NWS

Home | Current Version | Previous Version | Text Only | Print | Product List | Glossary Off
Versions: 1 2 3 4 5 6 7 8 9 10 11 12 13 14 15 16 17 18 19 20 21 22 23 24 25 26 27 28 29 30 31 32 33 34 35 36 37 38 39 40 41 42 43 44 45 46 47 48 49 50

000
ASUS45 KABQ 261501
RWRNM
NEW MEXICO REGIONAL WEATHER ROUNDUP
NATIONAL WEATHER SERVICE ALBUQUERQUE NM
900 AM MDT WED APR 26 2017

NOTE: "FAIR" MEANS FEW OR NO CLOUDS BELOW 12,000 FEET AGL WITH NO
       SIGNIFICANT WEATHER OR OBSTRUCTIONS TO VISION.

      THIS PRODUCT IS RELEASED AS TWO VERSIONS.  ONE VERSION NEAR
      THE TOP OF THE HOUR CONTAINING PRELIMINARY DATA FROM ALBUQUERQUE
      AND OTHER STATIONS.  A FINAL VERSION WITH ADDITIONAL DATA IS
      ISSUED ABOUT 10 MINUTES AFTER THE HOUR.

NMZ501-503-504-510>518-261600-
NORTHWEST PLATEAU/NORTHCENTRAL MOUNTAINS

CITY           SKY/WX    TMP DP  RH WIND       PRES   REMARKS
FARMINGTON     FAIR      46  27  47 W20       29.91S
LOS ALAMOS     FAIR      41  30  64 E5        29.92S
SANTA FE       FAIR      46  31  55 N6        29.90R
TAOS             N/A     37  28  70 NW5       29.92S WCI  34
ANGEL FIRE     FAIR      32  25  74 W7        29.91S WCI  26

$$
NMZ402-403-502-505>509-261600-
WESTCENTRAL MOUNTAINS/SOUTHWEST MOUNTAINS

CITY           SKY/WX    TMP DP  RH WIND       PRES   REMARKS
GALLUP         FAIR      42  26  53 SW6       29.98S
GRANTS         FAIR      45  26  47 N8G18     29.99R
SILVER CITY    FAIR      54  20  26 W3        29.96R

$$
NMZ407-409-411-412-261600-
SOUTHERN DESERTS

CITY           SKY/WX    TMP DP  RH WIND       PRES   REMARKS
DEMING         FAIR      60  23  24 NW10      29.94R
LAS CRUCES     FAIR      60  20  20 NW14      29.94S
HOLLOMAN AFB   FAIR      59  24  25 N13       29.94R
ALAMOGORDO     FAIR      59  23  25 N14       29.92R
T OR C         FAIR      57  21  24 VRB6      29.92S

$$
NMZ519>523-261600-
CENTRAL VALLEYS/CENTRAL HIGHLANDS

CITY           SKY/WX    TMP DP  RH WIND       PRES   REMARKS
ALBUQUERQUE    FAIR      47  30  51 NW9       29.93R
DOUBLE EAGLE   SUNNY     46  30  53 VRB5      29.93S
MORIARTY ARPT  FAIR      48  31  51 N7        29.91F
CLINES CORNERS FAIR      42  29  59 NW14      29.91R
BELEN          FAIR      48  28  46 E5        29.94S
SOCORRO        FAIR      55  24  30 N9        29.93R

$$
NMZ524>526-539-540-261600-
SOUTHCENTRAL MOUNTAINS

CITY           SKY/WX    TMP DP  RH WIND       PRES   REMARKS
RUIDOSO        NOT AVBL

$$
NMZ527>531-261600-
NORTHEAST HIGHLANDS/NORTHEAST PLAINS

CITY           SKY/WX    TMP DP  RH WIND       PRES   REMARKS
LAS VEGAS      FAIR      44  28  53 SW7       29.87R
RATON          FAIR      41  29  62 NE8       29.83S
CLAYTON        PTSUNNY   42  37  82 N18       29.83S

$$
NMZ532>537-261600-
EASTCENTRAL PLAINS

CITY           SKY/WX    TMP DP  RH WIND       PRES   REMARKS
SANTA ROSA     FAIR      49  34  56 CALM      29.87S
TUCUMCARI      PTSUNNY   48  39  71 N15       29.85R
CANNON AFB     CLOUDY    45  42  88 N23       29.86R
CLOVIS AIRPORT CLOUDY    45  36  70 N16       29.85R

$$
NMZ028-029-538-261600-
SOUTHEAST PLAINS

CITY           SKY/WX    TMP DP  RH WIND       PRES   REMARKS
ROSWELL        FAIR      55  34  45 N24G33    29.91
ARTESIA        FAIR      57  36  44 N29       29.88R
CARLSBAD       FAIR      60  33  36 N28G36    29.85R
HOBBS          MOSUNNY   54  36  50 NW24G30   29.84R


$$




USA.gov is the U.S. government's official web portal to all federal, state and local government web resources and services.